Time,TemperatureF,DewpointF,PressureIn,WindDirection,WindDirectionDegrees,WindSpeedMPH,WindSpeedGustMPH,Humidity,HourlyPrecipIn,Conditions,Clouds,dailyrainin,SoftwareType,DateUTC
2013-10-15 00:14:00,58.5,56.0,30.08,SSE,167,0.0,1.0,91,0.00,,,0.00,weatherlink.com 1.10,2013-10-15 05:14:00,
2013-10-15 00:29:00,59.0,56.0,30.08,SSE,166,0.0,1.0,90,0.00,,,0.00,weatherlink.com 1.10,2013-10-15 05:29:00,
2013-10-15 00:44:00,60.2,57.0,30.07,SSE,166,0.0,2.0,88,0.00,,,0.00,weatherlink.com 1.10,2013-10-15 05:44:00,
2013-10-15 00:59:00,60.7,57.0,30.07,SSE,166,1.0,2.0,87,0.00,,,0.00,weatherlink.com 1.10,2013-10-15 05:59:00,
2013-10-15 01:14:00,60.9,57.0,30.06,SSE,166,0.0,2.0,87,0.00,,,0.00,weatherlink.com 1.10,2013-10-15 06:14:00,
2013-10-15 01:30:00,61.5,57.0,30.06,SSE,166,1.0,2.0,86,0.00,,,0.00,weatherlink.com 1.10,2013-10-15 06:30:00,
2013-10-15 01:45:00,61.7,58.0,30.06,SSE,167,0.0,4.0,86,0.00,,,0.00,weatherlink.com 1.10,2013-10-15 06:45:00,
2013-10-15 02:00:00,61.3,57.0,30.06,SSE,166,0.0,2.0,87,0.00,,,0.00,weatherlink.com 1.10,2013-10-15 07:00:00,
2013-10-15 02:15:00,61.3,57.0,30.04,SSE,166,0.0,1.0,87,0.00,,,0.00,weatherlink.com 1.10,2013-10-15 07:15:00,
2013-10-15 02:30:00,60.9,57.0,30.04,SSE,166,0.0,2.0,88,0.00,,,0.00,weatherlink.com 1.10,2013-10-15 07:30:00,
2013-10-15 02:45:00,61.1,58.0,30.03,SSE,166,0.0,3.0,89,0.00,,,0.00,weatherlink.com 1.10,2013-10-15 07:45:00,
2013-10-15 03:00:00,61.4,58.0,30.02,SSE,166,0.0,3.0,88,0.00,,,0.00,weatherlink.com 1.10,2013-10-15 08:00:00,
2013-10-15 03:15:00,61.8,59.0,30.03,SSE,166,2.0,4.0,89,0.00,,,0.00,weatherlink.com 1.10,2013-10-15 08:15:00,
2013-10-15 03:30:00,62.2,59.0,30.02,SSE,165,2.0,6.0,88,0.00,,,0.00,weatherlink.com 1.10,2013-10-15 08:30:00,
2013-10-15 03:45:00,62.4,59.0,30.01,SE,138,1.0,6.0,88,0.00,,,0.00,weatherlink.com 1.10,2013-10-15 08:45:00,
2013-10-15 04:00:00,62.4,59.0,30.02,SSE,162,2.0,4.0,88,0.00,,,0.00,weatherlink.com 1.10,2013-10-15 09:00:00,
2013-10-15 04:15:00,62.3,59.0,30.02,SE,133,1.0,5.0,88,0.00,,,0.00,weatherlink.com 1.10,2013-10-15 09:15:00,
2013-10-15 04:30:00,62.3,59.0,30.02,SE,139,2.0,6.0,89,0.00,,,0.00,weatherlink.com 1.10,2013-10-15 09:30:00,
2013-10-15 04:45:00,62.3,59.0,30.01,SE,139,2.0,4.0,89,0.00,,,0.00,weatherlink.com 1.10,2013-10-15 09:45:00,
2013-10-15 05:00:00,62.2,59.0,30.00,SE,140,2.0,4.0,90,0.00,,,0.00,weatherlink.com 1.10,2013-10-15 10:00:00,
2013-10-15 05:15:00,62.0,59.0,30.00,SE,140,0.0,3.0,90,0.00,,,0.00,weatherlink.com 1.10,2013-10-15 10:15:00,
2013-10-15 05:30:00,61.9,59.0,30.01,SE,140,0.0,1.0,90,0.00,,,0.00,weatherlink.com 1.10,2013-10-15 10:30:00,
2013-10-15 06:00:00,61.9,59.0,29.99,SE,140,1.0,2.0,91,0.00,,,0.00,weatherlink.com 1.10,2013-10-15 11:00:00,
2013-10-15 06:15:00,61.9,59.0,29.99,SE,140,4.0,4.0,91,0.00,,,0.00,weatherlink.com 1.10,2013-10-15 11:15:00,
2013-10-15 06:30:00,62.0,59.0,29.99,SE,140,3.0,4.0,91,0.00,,,0.00,weatherlink.com 1.10,2013-10-15 11:30:00,
2013-10-15 06:45:00,62.2,60.0,29.99,SE,139,1.0,5.0,92,0.00,,,0.00,weatherlink.com 1.10,2013-10-15 11:45:00,
2013-10-15 07:00:00,62.3,60.0,29.99,SE,139,3.0,4.0,92,0.00,,,0.00,weatherlink.com 1.10,2013-10-15 12:00:00,
2013-10-15 07:16:00,62.3,60.0,29.99,SE,140,3.0,6.0,92,0.00,,,0.00,weatherlink.com 1.10,2013-10-15 12:16:00,
2013-10-15 07:31:00,62.2,60.0,29.99,SE,140,2.0,4.0,92,0.00,,,0.00,weatherlink.com 1.10,2013-10-15 12:31:00,
2013-10-15 07:46:00,62.2,60.0,29.98,SE,140,2.0,5.0,93,0.00,,,0.00,weatherlink.com 1.10,2013-10-15 12:46:00,
2013-10-15 08:01:00,62.5,61.0,29.98,SE,140,1.0,5.0,93,0.00,,,0.00,weatherlink.com 1.10,2013-10-15 13:01:00,
2013-10-15 08:16:00,62.7,61.0,29.98,SE,140,2.0,4.0,93,0.00,,,0.00,weatherlink.com 1.10,2013-10-15 13:16:00,
2013-10-15 08:31:00,63.2,61.0,29.98,SE,140,2.0,5.0,93,0.00,,,0.00,weatherlink.com 1.10,2013-10-15 13:31:00,
2013-10-15 08:46:00,63.7,62.0,29.98,SE,140,0.0,4.0,93,0.00,,,0.00,weatherlink.com 1.10,2013-10-15 13:46:00,
2013-10-15 09:01:00,64.1,62.0,29.98,SE,140,1.0,4.0,93,0.00,,,0.00,weatherlink.com 1.10,2013-10-15 14:01:00,
2013-10-15 09:16:00,64.5,63.0,29.99,SE,140,3.0,4.0,93,0.00,,,0.00,weatherlink.com 1.10,2013-10-15 14:16:00,
2013-10-15 09:31:00,65.4,63.0,29.99,SSE,162,4.0,5.0,93,0.00,,,0.00,weatherlink.com 1.10,2013-10-15 14:31:00,
2013-10-15 09:46:00,66.5,64.0,29.98,SSE,161,4.0,8.0,91,0.00,,,0.00,weatherlink.com 1.10,2013-10-15 14:46:00,
2013-10-15 10:01:00,67.2,65.0,29.98,SSE,161,4.0,6.0,91,0.00,,,0.00,weatherlink.com 1.10,2013-10-15 15:01:00,
2013-10-15 10:16:00,67.8,65.0,29.99,SSE,161,3.0,6.0,90,0.00,,,0.00,weatherlink.com 1.10,2013-10-15 15:16:00,
2013-10-15 10:31:00,68.7,65.0,29.98,SSE,159,5.0,7.0,88,0.00,,,0.00,weatherlink.com 1.10,2013-10-15 15:31:00,
2013-10-15 10:47:00,69.0,65.0,29.98,South,186,5.0,8.0,86,0.00,,,0.00,weatherlink.com 1.10,2013-10-15 15:47:00,
2013-10-15 11:02:00,68.5,65.0,29.98,SSE,165,6.0,8.0,87,0.00,,,0.00,weatherlink.com 1.10,2013-10-15 16:02:00,
2013-10-15 11:17:00,68.5,65.0,29.98,South,176,3.0,7.0,89,0.00,,,0.00,weatherlink.com 1.10,2013-10-15 16:17:00,
2013-10-15 11:32:00,68.3,65.0,29.98,South,177,4.0,9.0,90,0.01,,,0.01,weatherlink.com 1.10,2013-10-15 16:32:00,
2013-10-15 11:47:00,67.8,65.0,29.99,SSW,193,4.0,6.0,91,0.01,,,0.01,weatherlink.com 1.10,2013-10-15 16:47:00,
2013-10-15 12:02:00,67.5,65.0,29.98,South,176,5.0,8.0,92,0.04,,,0.04,weatherlink.com 1.10,2013-10-15 17:02:00,
2013-10-15 12:17:00,67.2,65.0,29.98,South,172,4.0,6.0,93,0.06,,,0.06,weatherlink.com 1.10,2013-10-15 17:17:00,
2013-10-15 12:32:00,67.3,66.0,29.97,South,172,3.0,6.0,94,0.06,,,0.07,weatherlink.com 1.10,2013-10-15 17:32:00,
2013-10-15 12:47:00,67.7,66.0,29.96,SSE,161,2.0,6.0,94,0.05,,,0.07,weatherlink.com 1.10,2013-10-15 17:47:00,
2013-10-15 13:02:00,67.8,66.0,29.95,SSE,161,3.0,6.0,94,0.04,,,0.08,weatherlink.com 1.10,2013-10-15 18:02:00,
2013-10-15 13:17:00,67.7,65.0,29.94,South,181,6.0,15.0,92,0.03,,,0.09,weatherlink.com 1.10,2013-10-15 18:17:00,
2013-10-15 13:32:00,67.4,65.0,29.94,South,174,8.0,13.0,91,0.02,,,0.09,weatherlink.com 1.10,2013-10-15 18:32:00,
2013-10-15 13:47:00,67.0,64.0,29.94,SSW,192,5.0,14.0,91,0.02,,,0.09,weatherlink.com 1.10,2013-10-15 18:47:00,
2013-10-15 14:02:00,66.7,64.0,29.91,SSE,167,8.0,12.0,92,0.02,,,0.10,weatherlink.com 1.10,2013-10-15 19:02:00,
2013-10-15 14:17:00,66.7,64.0,29.92,South,174,6.0,12.0,92,0.01,,,0.10,weatherlink.com 1.10,2013-10-15 19:17:00,
2013-10-15 14:32:00,67.1,65.0,29.92,SSE,163,4.0,9.0,92,0.01,,,0.10,weatherlink.com 1.10,2013-10-15 19:32:00,
2013-10-15 14:48:00,67.4,65.0,29.92,SSW,199,2.0,10.0,92,0.01,,,0.10,weatherlink.com 1.10,2013-10-15 19:48:00,
2013-10-15 15:03:00,67.5,65.0,29.93,South,183,6.0,11.0,92,0.00,,,0.10,weatherlink.com 1.10,2013-10-15 20:03:00,
2013-10-15 15:18:00,67.7,65.0,29.92,South,169,7.0,11.0,92,0.00,,,0.10,weatherlink.com 1.10,2013-10-15 20:18:00,
2013-10-15 15:33:00,67.9,65.0,29.92,South,183,4.0,12.0,91,0.00,,,0.10,weatherlink.com 1.10,2013-10-15 20:33:00,
2013-10-15 15:48:00,67.9,65.0,29.92,South,173,7.0,12.0,90,0.00,,,0.10,weatherlink.com 1.10,2013-10-15 20:48:00,
2013-10-15 16:03:00,67.8,65.0,29.92,South,178,6.0,12.0,89,0.00,,,0.10,weatherlink.com 1.10,2013-10-15 21:03:00,
2013-10-15 16:18:00,67.8,65.0,29.93,South,173,5.0,8.0,90,0.00,,,0.10,weatherlink.com 1.10,2013-10-15 21:18:00,
2013-10-15 16:33:00,67.8,65.0,29.92,SSW,198,5.0,8.0,89,0.00,,,0.10,weatherlink.com 1.10,2013-10-15 21:33:00,
2013-10-15 16:48:00,67.7,64.0,29.92,South,175,3.0,8.0,89,0.00,,,0.10,weatherlink.com 1.10,2013-10-15 21:48:00,
2013-10-15 17:03:00,67.6,64.0,29.92,South,177,7.0,8.0,89,0.00,,,0.10,weatherlink.com 1.10,2013-10-15 22:03:00,
2013-10-15 17:18:00,67.6,64.0,29.91,SSE,149,5.0,8.0,89,0.00,,,0.10,weatherlink.com 1.10,2013-10-15 22:18:00,
2013-10-15 17:33:00,67.5,65.0,29.92,South,181,4.0,8.0,90,0.00,,,0.10,weatherlink.com 1.10,2013-10-15 22:33:00,
2013-10-15 17:48:00,67.5,65.0,29.91,South,178,4.0,8.0,90,0.00,,,0.10,weatherlink.com 1.10,2013-10-15 22:48:00,
2013-10-15 18:03:00,67.4,65.0,29.91,SSE,163,7.0,9.0,90,0.00,,,0.10,weatherlink.com 1.10,2013-10-15 23:03:00,
2013-10-15 18:18:00,67.4,65.0,29.91,South,188,6.0,9.0,90,0.00,,,0.10,weatherlink.com 1.10,2013-10-15 23:18:00,
2013-10-15 18:33:00,67.4,65.0,29.92,SSE,151,4.0,8.0,90,0.00,,,0.10,weatherlink.com 1.10,2013-10-15 23:33:00,
2013-10-15 18:48:00,67.3,64.0,29.92,South,186,2.0,8.0,90,0.00,,,0.10,weatherlink.com 1.10,2013-10-15 23:48:00,
2013-10-15 19:03:00,67.2,64.0,29.92,SSE,161,3.0,10.0,90,0.00,,,0.10,weatherlink.com 1.10,2013-10-16 00:03:00,
2013-10-15 19:18:00,67.2,65.0,29.93,SSW,199,5.0,8.0,91,0.00,,,0.10,weatherlink.com 1.10,2013-10-16 00:18:00,
2013-10-15 19:33:00,67.1,65.0,29.93,South,178,3.0,9.0,91,0.00,,,0.10,weatherlink.com 1.10,2013-10-16 00:33:00,
2013-10-15 19:48:00,66.8,65.0,29.93,South,178,3.0,7.0,92,0.00,,,0.10,weatherlink.com 1.10,2013-10-16 00:48:00,
2013-10-15 20:03:00,66.8,65.0,29.93,South,179,4.0,6.0,92,0.00,,,0.10,weatherlink.com 1.10,2013-10-16 01:03:00,
2013-10-15 20:18:00,67.0,64.0,29.93,South,176,3.0,9.0,91,0.00,,,0.10,weatherlink.com 1.10,2013-10-16 01:18:00,
2013-10-15 20:33:00,67.0,64.0,29.93,South,182,3.0,8.0,91,0.00,,,0.10,weatherlink.com 1.10,2013-10-16 01:33:00,
2013-10-15 20:48:00,67.0,64.0,29.94,SSW,202,6.0,7.0,91,0.00,,,0.10,weatherlink.com 1.10,2013-10-16 01:48:00,
2013-10-15 21:03:00,67.1,65.0,29.94,South,183,2.0,6.0,91,0.00,,,0.10,weatherlink.com 1.10,2013-10-16 02:03:00,
2013-10-15 21:18:00,67.0,64.0,29.94,South,179,5.0,7.0,91,0.00,,,0.10,weatherlink.com 1.10,2013-10-16 02:18:00,
2013-10-15 21:33:00,67.1,65.0,29.94,South,189,7.0,8.0,91,0.00,,,0.10,weatherlink.com 1.10,2013-10-16 02:33:00,
2013-10-15 21:48:00,67.0,64.0,29.94,SSE,157,4.0,8.0,91,0.00,,,0.10,weatherlink.com 1.10,2013-10-16 02:48:00,
2013-10-15 22:03:00,66.9,64.0,29.94,South,177,1.0,7.0,91,0.00,,,0.10,weatherlink.com 1.10,2013-10-16 03:03:00,
2013-10-15 22:18:00,66.8,64.0,29.94,South,177,2.0,5.0,91,0.00,,,0.10,weatherlink.com 1.10,2013-10-16 03:18:00,
2013-10-15 22:33:00,66.7,64.0,29.94,SSW,212,3.0,6.0,92,0.00,,,0.10,weatherlink.com 1.10,2013-10-16 03:33:00,
2013-10-15 22:48:00,66.6,64.0,29.93,South,186,2.0,5.0,92,0.00,,,0.10,weatherlink.com 1.10,2013-10-16 03:48:00,
2013-10-15 23:03:00,66.5,65.0,29.93,South,186,0.0,3.0,93,0.00,,,0.10,weatherlink.com 1.10,2013-10-16 04:03:00,
2013-10-15 23:18:00,66.3,64.0,29.93,South,186,1.0,4.0,93,0.00,,,0.10,weatherlink.com 1.10,2013-10-16 04:18:00,
2013-10-15 23:33:00,64.7,63.0,29.93,WNW,302,4.0,12.0,93,0.02,,,0.12,weatherlink.com 1.10,2013-10-16 04:33:00,
2013-10-15 23:48:00,63.6,62.0,29.93,NW,319,9.0,10.0,93,0.02,,,0.12,weatherlink.com 1.10,2013-10-16 04:48:00,